Погода в Сядемке

Россия / Пензенская область     53°38′21″N   42°36′09″E
темп.,
°C
ветер,
м/с
пор.,
м/с
влажн.,
%
обл.,
%
осадки,
мм/ч
давл.,
гПа
погр.,
м
6 марта, сб
сб600:00−10з23960 0.0 101443
03:00−11зсз23920 0.0 101622
06:00−13сз11930 0.0 101521
09:00−9зюз118617 0.0 1016100
12:00−4зсз127766 0.0 1016533
15:00−4юз018182 0.1 1014471
18:00−7сз229498 0.4 101432
21:00−11зсз239649 0.4 101529
7 марта, вс
вс700:00−12з23966 0.0 101555
03:00−13зюз34963 0.0 101481
06:00−14юз36956 0.0 1014123
09:00−9юз6128646 0.0 1011498
12:00−6юз81580100 0.0 1007837
15:00−4юз91791100 1.0 10021182
18:00−3юз81693100 2.1 9971263
21:00−2з81394100 4.5 9971016
8 марта, пн
пн800:00−9зюз4108067 0.1 998206
03:00−9зюз5148050 0.1 1000499
06:00−10юз4129030 0.0 999345
09:00−6зюз7139265 0.6 9981033
12:00−7зюз8118195 0.3 9991055
15:00−5з7108098 0.5 10021192
18:00−8з5118499 0.1 1004692
21:00−9з4119280 0.2 1006451
9 марта, вт
вт900:00−10зсз489596 0.1 1008331
03:00−13зсз379797 0.2 1010175
06:00−16зсз349893 0.0 101286
09:00−14сз359382 0.1 1014259
12:00−10сз358595 0.0 1014583
15:00−10сз458398 0.0 1015673
18:00−13сз3593100 0.0 1016110
21:00−15сз379798 0.1 1018215
10 марта, ср
ср1000:00−20сз349570 0.0 102090
03:00−23сз349837 0.0 102176
06:00−24сз359932 0.0 1022108
09:00−22сз359551 0.0 1023258
12:00−17сз358482 0.0 1024573
15:00−16сз458491 0.0 1024621
18:00−19сз2394100 0.0 102529
21:00−22ссз229761 0.0 102720